Lid_Strength_Index
22 21 21 22 23 23 23 21 24 22 23 22 20 20 20 19 19 19 19 18 17 17 15 14 13 11 11 11 11 10 10 10 9 10 9 8 7 7 7 7 5 5 6 6
26 24 24 25 23 24 23 22 22 23 24 19 19 19 20 20 19 20 18 18 17 16 14 14 13 11 11 11 12 10 10 10 10 9 9 9 7 7 7 6 5 6 6 7
26 23 24 26 24 24 22 20 22 26 21 21 22 21 21 21 20 19 19 18 17 16 15 13 12 11 12 11 11 10 10 10 10 9 9 8 7 7 7 5 6 6 7 7
27 24 27 24 23 22 23 22 21 22 21 21 21 20 20 20 18 19 19 17 16 15 13 12 11 10 10 10 11 9 9 10 9 9 8 8 7 5 5 5 6 7 7 7
27 27 23 23 22 22 25 24 22 23 21 21 21 21 19 17 18 19 18 17 15 13 13 12 10 8 8 8 7 8 10 10 9 8 6 6 5 4 5 5 6 7 7 7
26 29 27 23 21 19 22 25 19 20 22 23 22 26 22 19 19 18 17 16 15 14 13 11 9 6 6 6 6 9 10 10 8 5 3 4 4 4 5 5 7 7 7 7
26 26 23 21 20 19 24 23 19 20 21 22 23 22 21 19 19 18 17 17 15 14 13 12 10 7 5 5 7 8 8 7 4 3 3 4 4 5 6 7 7 8 8 8
26 28 26 21 19 23 20 19 19 19 19 21 21 21 20 20 20 19 19 17 17 16 16 14 12 9 5 8 8 8 8 5 3 3 3 4 4 5 6 7 8 9 9 9
23 21 21 18 19 18 19 20 20 19 19 20 21 21 20 21 20 20 19 18 18 18 17 16 15 13 12 11 9 5 4 3 5 4 4 4 6 7 8 7 8 9 9 10
24 20 20 19 19 19 19 20 19 19 19 18 20 20 21 20 20 20 19 19 19 19 19 19 17 16 14 12 7 7 8 8 6 6 7 6 7 7 8 8 9 9 10 11
24 21 20 20 19 20 20 19 19 19 19 18 19 20 20 21 20 20 19 19 19 20 19 19 18 17 15 14 10 11 12 12 11 10 10 11 10 9 8 7 8 9 10 10
22 21 21 20 20 19 21 20 20 20 19 19 19 20 20 20 20 19 19 19 20 20 19 19 18 18 17 14 12 10 11 11 11 11 10 10 10 10 9 9 9 9 9 9
20 22 21 20 20 20 21 20 20 19 20 21 19 19 20 20 20 18 19 19 20 19 19 19 18 18 17 15 12 12 12 11 10 11 10 10 10 11 12 11 10 10 10 10
22 24 21 22 20 21 21 20 20 20 20 20 20 19 19 20 20 20 21 20 19 19 19 19 18 18 17 15 14 13 12 11 11 11 11 11 11 12 11 11 12 13 11 10
24 23 21 22 22 21 21 21 22 22 21 21 20 20 20 21 22 21 20 19 19 18 18 19 18 17 17 15 15 13 12 12 11 11 11 11 12 12 12 11 12 12 12 11
24 24 25 25 24 23 24 23 23 23 22 22 21 21 21 21 20 20 20 20 20 20 18 18 17 17 17 16 15 14 12 11 11 12 11 12 12 12 13 12 13 13 13 13
24 24 25 24 24 24 25 26 25 24 23 22 21 21 20 20 19 20 20 20 19 19 18 18 17 16 16 16 16 16 13 12 11 12 12 12 12 12 12 12 13 13 13 12
25 26 26 25 25 25 25 24 24 23 22 21 22 21 20 20 21 21 20 20 19 18 17 17 16 16 17 16 16 16 15 14 13 13 12 12 12 13 13 13 13 14 14 13
30 27 27 27 26 26 26 25 24 23 22 22 20 21 20 19 19 20 19 19 19 20 18 17 15 16 17 16 15 17 16 15 14 14 13 12 13 13 14 14 15 15 15 15
29 30 28 27 26 26 25 24 23 21 20 19 19 18 19 19 18 18 18 19 19 19 16 16 16 16 17 16 16 17 17 16 16 14 14 14 14 14 14 14 15 16 16 16
26 26 25 24 22 21 20 19 19 19 18 18 18 18 18 18 17 17 18 19 18 17 16 16 16 16 16 16 18 18 18 17 17 17 16 16 16 16 16 16 17 17 17 17
23 23 22 21 21 20 19 19 19 18 18 18 17 16 17 17 16 16 17 18 16 15 16 17 16 15 16 17 18 18 18 18 17 17 17 17 17 17 17 17 18 18 18 18
22 21 20 20 19 19 19 19 18 18 18 17 17 16 16 15 15 16 17 16 16 14 16 16 15 15 16 18 19 18 18 18 17 18 18 18 17 17 18 18 18 18 18 18
21 20 20 19 19 19 20 18 18 18 18 17 15 15 14 15 14 14 14 14 15 15 16 15 14 15 16 19 18 19 18 18 18 18 17 17 18 18 17 17 17 17 17 17
20 20 20 20 19 19 18 18 19 17 17 16 15 14 13 13 14 13 13 14 15 16 17 16 15 16 17 18 18 18 18 17 18 18 17 17 17 17 17 17 17 16 17 17
20 20 19 19 19 18 18 18 18 16 16 15 14 13 12 12 12 12 13 13 15 16 18 18 17 17 18 18 18 18 17 17 17 17 17 16 16 16 16 16 16 16 16 16
20 19 19 19 18 17 17 17 16 16 15 14 15 13 12 12 12 12 12 14 15 16 17 18 18 17 18 18 18 18 17 16 17 17 17 17 17 17 16 16 16 16 15 15